Hourly Data Report for October 01, 2013

All times are specified in Local Standard Time (LST). Add 1 hour to adjust for Daylight Saving Time where and when it is observed.

CLYDE RIVER A
NUNAVUT

70°29'09.000" N
68°31'01.000" W
26.50 m
2400804
71090
YCY

Download Data

Hourly Data (October 2013)
Hourly Data Report for October 1, 2013
Temp Definition
°C
Dew Point Temp Definition
°C
Rel Hum Definition
%
Wind Dir Definition
10's deg

Wind Spd Definition
km/h
Visibility Definition
km
Stn Press Definition
kPa
Hmdx Definition


Wind Chill Definition


Weather Definition


TIME
00:00 Legend Double Dagger -1.4 -5.0 76 34 24 16.1 100.03   -8 LegendNANA
01:00 Legend Double Dagger -1.4 -4.8 78 35 24 16.1 100.05   -8 LegendNANA
02:00 Legend Double Dagger -1.8 -4.8 80 34 21 16.1 100.08   -8 LegendNANA
03:00 Legend Double Dagger -1.9 -4.8 81 32 21 16.1 100.10   -8 LegendNANA
04:00 Legend Double Dagger -2.1 -4.5 84 32 15 16.1 100.13   -7 LegendNANA
05:00 Legend Double Dagger -2.1 -4.2 86 33 17 16.1 100.14   -7 LegendNANA
06:00 Legend Double Dagger -2.2 -4.1 87 32 17 16.1 100.17   -8 LegendNANA
07:00 Legend Double Dagger -2.3 -3.9 89 33 21 14.5 100.19   -8 LegendNANA
08:00 Legend Double Dagger -2.4 -4.2 87 32 21 16.1 100.21   -8 LegendNANA
09:00 Legend Double Dagger -2.3 -4.0 88 33 18 14.5 100.22   -8 LegendNANA
10:00 Legend Double Dagger -2.3 -3.9 89 34 26 16.1 100.23   -9 LegendNANA
11:00 Legend Double Dagger -2.2 -4.9 82 32 30 16.1 100.24   -9 LegendNANA
12:00 Legend Double Dagger -2.8 -3.9 92 31 22 8.1 100.26   -9 LegendNANA
13:00 Legend Double Dagger -2.4 -3.8 90 32 24 12.9 100.28   -9 LegendNANA
14:00 Legend Double Dagger -3.0 -4.3 91 31 22 3.2 100.30   -9 LegendNANA
15:00 Legend Double Dagger -2.9 -3.9 93 31 21 2.8 100.34   -9 LegendNANA
16:00 Legend Double Dagger -3.8 -5.9 86 30 24 16.1 100.36   -11 LegendNANA
17:00 Legend Double Dagger -5.3 -6.8 89 28 21 16.1 100.38   -12 LegendNANA
18:00 Legend Double Dagger -5.4 -7.1 88 29 22 16.1 100.41   -12 LegendNANA
19:00 Legend Double Dagger -4.8 -5.9 92 29 21 6.4 100.45   -11 LegendNANA
20:00 Legend Double Dagger -4.2 -5.6 90 29 22 16.1 100.44   -11 LegendNANA
21:00 Legend Double Dagger -4.4 -6.3 87 28 26 16.1 100.44   -12 LegendNANA
22:00 Legend Double Dagger -4.5 -6.3 87 28 24 16.1 100.45   -12 LegendNANA
23:00 Legend Double Dagger -4.6 -6.1 89 28 22 16.1 100.45   -11 LegendNANA

Notes on Data Quality.

Legend

  • E = Estimated
  • M = Missing
  • NA = Not Available
  • ‡ = Partner data that is not subject to review by the National Climate Archives
Date modified: